www.pogodaiklimat.ru

Погода и климат >> Архив погоды >> Россия >> Калмыкия >> Кетченеры


ПОГОДА в Кетченерах

  • Прогноз погоды в Кетченерах
  • Монитор погоды в Кетченерах
  • Климат города

АРХИВ ПОГОДЫ в Кетченерах

Время (UTC), дата Ветер
(напр.,м/с)
 
Видим.   Явления Облачность Т
(С)
Тd
(С)
f
(%)
Тe
(С)
Тes
(С)
Комфортность P
(гПа)
Po
(гПа)
Тmin
(С)
Tmax
(С)
R
(мм)
R24
(мм)
S
(см)
09 17.05 Ю 1 20 км 10/8 600 м
[Cb calv Ac trans]
+19.9 +8.3 47 +22 +24 комфорт 1017.8 1011.0
15 17.05 штиль 0 20 км 10/10 600 м
[Cb calv]
+17.9 +10.6 62 +18 +18 1017.3 1010.4 +20.8
21 17.05 штиль 0 2000 м слабый ливневой дождь 10/10 300 м
[Cb calv]
+13.8 +13.2 96 +13 +13 1016.9 1009.9
03 18.05 С 2 2000 м дымка 10/10 600 м
[Cb calv]
+13.6 +13.1 97 +13 +13 1016.5 1009.6 +13.0 4
09 18.05 СВ 2 4000 м в посл. час ливневой дождь 10/10 600 м
[Cb calv]
+15.3 +13.6 90 +15 +15 1016.7 1009.8
15 18.05 С 3 20 км {ливн. осадки} 10/10 600 м
[Cb calv]
+14.6 +12.1 85 +14 +14 1016.0 1009.1 +15.5 7
21 18.05 Ю 1 4000 м слабый ливневой дождь 10/10 300 м
[Cb calv]
+12.9 +12.0 94 +13 +13 1015.9 1008.9
03 19.05 Ю 1 2000 м дымка {ливн. осадки} 10/10 300 м
[St]
+13.2 +12.9 98 +13 +13 1013.9 1007.0 +12.7 3
09 19.05 Ю 2 20 км 10/10 600 м
[Cb calv]
+17.2 +12.3 73 +18 +18 1013.2 1006.4
15 19.05 ЮЗ 1 4000 м слабый ливневой дождь 10/10 300 м
[Cb calv]
+15.5 +14.0 91 +16 +16 1012.4 1005.5 +18.0 0.0
21 19.05 Ю 1 2000 м дымка 8/0
[Ac trans Ci fib]
+12.9 +12.4 97 +13 +13 1012.1 1005.1
03 20.05 Ю 2 2000 м слабый ливневой дождь 10/10 300 м
[Cb calv]
+12.7 +12.4 98 +12 +12 1009.7 1002.8 +10.9 1
15 20.05 СЗ 3 20 км 10/10 600 м
[Cb calv]
+16.0 +11.4 74 +16 +16 1007.0 1000.1 +17.4 0.8
21 20.05 ЮВ 3 4000 м дымка ясно +11.8 +10.9 94 +10 +10 1006.6 999.6
03 21.05 ЮВ 4 20 км 3/0
[Ci fib]
+11.8 +8.6 81 +10 +11 1004.8 997.9 +10.1
09 21.05 ЮВ 6
{12}
20 км 8/0
[Ac trans Ci fib]
+20.0 +8.6 48 +21 +25 комфорт 1004.4 997.7
15 21.05 ЮВ 3
{15}
20 км 6/0
[Ac trans Ci fib]
+19.0 +9.1 53 +20 +21 1004.3 997.5 +21.2
21 21.05 ЮВ 2 20 км 3/0
[Ac trans Ci fib]
+14.6 +11.3 81 +14 +14 1005.6 998.8
03 22.05 З 4 20 км 8/0
[Ac trans]
+13.5 +10.3 81 +12 +12 1005.8 998.9 +12.7
09 22.05 З 5 20 км 6/4 600 м
[Cb calv Ci fib]
+21.5 +9.7 47 +23 +28 комфорт 1005.4 998.7
15 22.05 СЗ 6-10
{10}
20 км 9/6 600 м
[Cb calv Ac trans Ci fib]
+19.9 +11.5 58 +21 +21 комфорт 1006.7 1000.0 +23.5
21 22.05 СЗ 2 20 км 6/3 600 м
[Sc Ci fib]
+11.2 +8.9 86 +10 +10 1010.5 1003.5
03 23.05 СЗ 2 20 км 9/6 600 м
[Cb calv Ac trans Ci fib]
+11.3 +7.5 77 +10 +11 1012.2 1005.2 +9.5
09 23.05 СЗ 3 20 км 6/0
[Ac trans Ci fib]
+18.2 +0.9 31 +18 +29 1014.3 1007.4
15 23.05 С 3 20 км 8/0
[Ac trans Ci fib]
+18.4 +1.1 31 +19 +19 1014.7 1007.8 +20.0
21 23.05 СВ 2 20 км ясно +11.9 +2.9 54 +11 +11 1018.1 1011.1
03 24.05 штиль 0 20 км 8/0
[Ac trans Ci fib]
+10.0 +4.6 69 +10 +11 1019.6 1012.5 +5.2

 

Местоположение метеостанции Кетченеры (Калмыкия, Россия): широта 47.32 долгота 44.57 высота над уровнем моря 58 м.

В архиве по умолчанию представлена погода в Кетченерах за последнюю неделю. Архивные данные за месяц целиком и за предыдущие месяцы, начиная с января 2011 года, Вы можете получить, выбрав интересующий диапазон дат из раскрывающегося списка и нажав кнопку "Ввод!".

Внимание! Время в таблицах - всемирное. Для получения местного времени необходимо прибавить поправку, которая в Кетченерах равна 3 ч.

Смотрите также архив погоды в соседних городах и на ближайших метеорологических станциях:

Погода в Малых Дербетах (Калмыкия, Россия) (69 км)
Погода в Элисте (Калмыкия, Россия) (107 км)
Погода в Ремонтном (Ростовская область, Россия) (108 км)
Погода в Котельниково (Волгоградская область, Россия) (112 км)
Погода в Юсте (Калмыкия, Россия) (134 км)
Погода в Яшкуле (Калмыкия, Россия) (140 км)
Погода в Черный Яр (Астраханская область, Россия) (143 км)
Погода в Волгограде город (Волгоградская область, Россия) (150 км)
Погода в Утте (Калмыкия, Россия) (153 км)
Погода в Нижнем Чире (Волгоградская область, Россия) (156 км)

Пояснения к столбцам:

Ветер - указаны скорость ветра в м/с - средняя за 10 мин, порывы в срок и между сроками (в фигурных скобках) и направление, откуда дует ветер: С - северный, СВ - северо-восточный, В - восточный, ЮВ - юго-восточный, Ю - южный, ЮЗ - юго-западный, З - западный, СЗ - северо-западный.
Видимость - горизонтальная дальность видимости в метрах или километрах. При видимости от 1 до 10 км при отсутствии осадков обычно наблюдается дымка, при ухудшении видимости до 1 км и менее - туман. В сухую погоду видимость может ухудшаться дымом, пылью или мглою.
Явления - указаны атмосферные явления, наблюдавшиеся в срок или в последний час перед сроком; фигурными скобками обозначены явления, наблюдавшиеся между сроками (за 1-3 часа до срока); квадратными скобками обозначены град или гололедные отложения с указанием их диаметра в мм.
Облачность - указаны через наклонную черту общая и нижняя облачность в баллах и высота нижней границы облаков в метрах; квадратными скобками обозначены формы облаков: Ci - перистые, Cs - перисто-слоистые, Cc - перисто-кучевые, Ac - высококучевые, As - высокослоистые, Sc - слоисто-кучевые, Ns - слоисто-дождевые, Cu - кучевые, Cb - кучево-дождевые. Подробнее классификацию облаков см. в Атласе облаков (PDF).
T - Температура воздуха - температура, измеренная на высоте 2 м над землей.
Td - Температура точки росы - температура, при понижении до которой содержащийся в воздухе водяной пар достигнет насыщения.
f - Относительная влажность воздуха - влажноcть воздуха, измеренная на высоте 2 м над землей.
Te - Эффективная температура - температура, которую ощущает одетый по сезону человек в тени. Характеристика душности погоды. При расчете учитывается влияние влажности воздуха и скорости ветра на теплоощущения человека.
Tes - Эффективная температура на солнце - температура, которую ощущает человек, с поправкой на солнечный нагрев. Характеристика знойности погоды. Зависит от высоты солнца над горизонтом, облачности и скорости ветра. Ночью, в пасмурную погоду, а также при ветре 12 м/с и более поправка равна нулю.
P - Атмосферное давление - приведенное к уровню моря атмосферное давление.
Po - Атмосферное давление - измеренное на уровне метеостанции атмосферное давление.
Tmin - Минимальная температура - минимум температуры воздуха на высоте 2 м над землей.
Tmax - Максимальная температура - максимум температуры воздуха на высоте 2 м над землей.
R - Количество осадков - Количество выпавших осадков за период времени, мм. При наведении курсора мыши на число - период времени, за который выпало указанное количество осадков.
R24 - Количество осадков - Количество выпавших осадков за 24 часа, мм.
S - Снежный покров - Высота снежного покрова, см. При наведении курсора мыши на число - состояние снежного покрова и степень покрытия местности в баллах.